Flag for Romania Weather past 2 weeks in Timișoara, Romania

Now
66 °F

Passing clouds.


Feels Like: 66 °F
Forecast: 65 / 85 °F
Wind: 6 mph from East

Location: Timisoara Airport

Current Time: Aug 2, 2015 at 8:11:42 AM

Latest Report: Aug 2, 2015 at 7:30 AM


Visibility: N/A

Pressure: 30.04 "Hg

Humidity: 73%

Dew point: 57 °F

Location of TimișoaraLocation

Historic Weather in Timișoara — Graph

°F

Timișoara temperature yesterday

Maximum temperature yesterday: 86 °F (at 4:00 PM)
Minimum temperature yesterday: 50 °F (at 5:30 AM)
Average temperature yesterday: 70 °F

Past Weeks' High & Low Weather Summary

 TemperatureHumidityPressure
High99 °F (Jul 18, 4:30 PM)100% (Jul 21, 4:00 AM)30.07 "Hg (Jul 21, 4:00 AM)
Low50 °F (Aug 1, 5:30 AM)17% (Jul 23, 4:30 PM)29.71 "Hg (Jul 25, 4:30 PM)
Average77 °F57%29.89 "Hg
* Reported Jul 18 7:00 AM — Aug 2 7:00 AM, Timișoara, Weather by CustomWeather, © 2015

Note: Actual official high and low records may vary slightly from our data, if they occured in-between our weather recording intervals... More about our weather records

Advertising

Timișoara weather history for previous 24 hours

 ConditionsComfort  
Time TempWeatherWind HumidityBarometerVisibility
7:00 AM
Sun, Aug 2
64 °FClear.6 mph78%30.04 "Hg10 mi
6:30 AM64 °FClear.7 mph78%30.07 "Hg10 mi
6:00 AM64 °FPassing clouds.7 mph78%30.07 "HgN/A
5:30 AM64 °FClear.6 mph78%30.07 "Hg10 mi
5:00 AM66 °FClear.7 mph73%30.07 "Hg10 mi
4:30 AM64 °FClear.7 mph78%30.07 "Hg10 mi
4:00 AM64 °FClear.6 mph78%30.07 "Hg10 mi
3:30 AM64 °FClear.6 mph78%30.07 "Hg10 mi
3:00 AM66 °FClear.6 mph73%30.07 "Hg10 mi
2:30 AM66 °FClear.6 mph73%30.07 "Hg10 mi
2:00 AM66 °FClear.6 mph73%30.07 "Hg10 mi
1:30 AM64 °FClear.5 mph78%30.07 "Hg10 mi
1:00 AM66 °FClear.3 mph73%30.07 "Hg10 mi
12:30 AM68 °FClear.5 mph73%30.07 "Hg10 mi
12:00 AM68 °FClear.3 mph73%30.07 "Hg10 mi
11:30 PM
Sat, Aug 1
70 °FClear.2 mph69%30.04 "Hg10 mi
11:00 PM72 °FClear.5 mph65%30.04 "Hg10 mi
10:30 PM75 °FClear.2 mph57%30.04 "Hg10 mi
10:00 PM77 °FSunny.3 mph54%30.04 "Hg10 mi
9:30 PM79 °FPassing clouds.6 mph45%30.01 "HgN/A
9:00 PM81 °FSunny.1 mph32%30.01 "Hg10 mi
8:30 PM82 °FSunny.No wind30%30.01 "Hg10 mi
8:00 PM86 °FSunny.1 mph27%30.01 "Hg10 mi
7:30 PM86 °FSunny.2 mph27%30.01 "Hg10 mi
7:00 PM86 °FPassing clouds.3 mph27%30.01 "HgN/A
6:00 PM86 °FSunny.2 mph25%30.01 "Hg10 mi
5:30 PM86 °FPassing clouds.3 mph25%30.01 "HgN/A
5:00 PM86 °FSunny.5 mph24%30.01 "Hg10 mi
4:30 PM86 °FPassing clouds.9 mph24%30.04 "HgN/A
4:00 PM86 °FSunny.2 mph25%30.04 "Hg10 mi
3:30 PM84 °FPassing clouds.3 mph29%30.04 "HgN/A
3:00 PM84 °FSunny.3 mph25%30.04 "Hg10 mi
2:30 PM82 °FSunny.3 mph28%30.04 "Hg10 mi
2:00 PM81 °FSunny.5 mph32%30.04 "Hg10 mi
1:30 PM81 °FSunny.2 mph30%30.07 "Hg10 mi
1:00 PM79 °FPassing clouds.3 mph34%30.07 "HgN/A
12:30 PM79 °FSunny.3 mph34%30.07 "Hg10 mi
12:00 PM77 °FPassing clouds.3 mph39%30.07 "HgN/A
11:30 AM75 °FSunny.2 mph41%30.07 "Hg10 mi
11:00 AM73 °FSunny.2 mph44%30.07 "Hg10 mi
10:30 AM72 °FSunny.3 mph50%30.07 "Hg10 mi
10:00 AM70 °FPassing clouds.5 mph57%30.07 "HgN/A
9:30 AM66 °FPassing clouds.6 mph68%30.07 "HgN/A
9:00 AM63 °FPassing clouds.5 mph77%30.07 "HgN/A
8:30 AM59 °FPassing clouds.3 mph82%30.07 "HgN/A
Weather by CustomWeather, © 2015

See weather overviewHow to use our weather pages